Regional Weather Roundup
Issued by NWS

Home | Current Version | Previous Version | Graphics & Text | Print | Product List | Glossary On
Versions: 1 2 3 4 5 6 7 8 9 10 11 12 13 14 15 16 17 18 19 20 21 22 23 24 25 26 27 28 29 30 31 32 33 34 35 36 37 38 39 40 41 42 43 44 45 46 47 48 49 50
000
ASUS43 KLOT 230608
RWRIL

ILLINOIS REGIONAL WEATHER ROUNDUP
NATIONAL WEATHER SERVICE CHICAGO/ROMEOVILLE IL
1200 AM CST THU FEB 23 2017

NOTE: "FAIR" INDICATES FEW OR NO CLOUDS BELOW 12,000 FEET WITH NO
SIGNIFICANT WEATHER AND/OR OBSTRUCTIONS TO VISIBILITY.

* THESE STATIONS ARE NOT UNDER NWS QUALITY CONTROL. THEY ALSO MAY NOT
  REPORT WEATHER SUCH AS PRECIPITATION OR FOG.

ILZ001-002-007-009-015-016-024-230700-
NORTHWEST ILLINOIS

CITY           SKY/WX    TMP DP  RH WIND       PRES   REMARKS
MOLINE         PTCLDY   N/A N/A N/A CALM      29.68R
STERLING*      PTCLDY    49  45  86 W9        29.68R
SAVANNA*       CLEAR     52  44  75 W3        29.67R
$$

ILZ003-004-008-010-011-017-018-230700-
NORTH CENTRAL ILLINOIS

CITY           SKY/WX    TMP DP  RH WIND       PRES   REMARKS
ROCKFORD       CLEAR     54  47  77 W8        29.66R
6HR MIN TEMP:  54; 6HR MAX TEMP:  62;

FREEPORT*      CLEAR     50  44  79 W8        29.67R
ROCHELLE*      PTCLDY    49  48  95 W9        29.66R
DE KALB*       PTCLDY    54  50  86 W14G22    29.64S
PERU*          CLEAR     54  50  88 SW8       29.67R
$$

ILZ005-006-012>014-019>023-230700-
NORTHEAST ILLINOIS

CITY           SKY/WX    TMP DP  RH WIND       PRES   REMARKS
CHICAGO-OHARE  PTCLDY    59  51  75 SW15G22   29.61S
6HR MIN TEMP:  59; 6HR MAX TEMP:  65;

CHICAGO-MIDWAY CLEAR     59  52  77 SW14      29.63R
6HR MIN TEMP:  59; 6HR MAX TEMP:  65;

AURORA         CLEAR     55  51  86 SW15      29.64R
6HR MIN TEMP:  55; 6HR MAX TEMP:  63;

LANSING*       CLEAR     54  54  98 SW10      29.66R
JOLIET*        CLEAR     58  55  88 SW12G18   29.66R
WAUKEGAN       CLEAR     56  51  84 SW8G17    29.58S
6HR MIN TEMP:  56; 6HR MAX TEMP:  63;

DUPAGE AIRPORT CLEAR     55  50  83 SW16      29.62R
6HR MIN TEMP:  55; 6HR MAX TEMP:  62;

KANKAKEE*      CLEAR     53  52  95 SW10      29.68R
WHEELING       CLEAR     58  51  78 SW13      29.61S
6HR MIN TEMP:  58; 6HR MAX TEMP:  64;

MORRIS*        CLEAR     56  52  88 SW10      29.65R
ROMEOVILLE*    CLEAR     56  55  95 SW15      29.65R
NORTHERLY ISL    N/A     59  52  77 SW10        N/A
$$

LMZ740>746-230700-
SOUTHERN LAKE MICHIGAN

STATION/POSITION SKY/WX   TEMP    WIND        PRES    VSBY  WAVE
                          AIR SEA DIR/SP/G                  HT/PER
                          (F)     (DEG/KT/KT) (MB)    (MI)  (FT/S)
HARRISON CRIB              61     230/ 26/ 31   N/A
BURNHAM HARBOR             59     250/  6/ 13   N/A
CALUMET HARBOR             57     210/  7/ 12 1003.0R
BURNS HARBOR               59     210/ 16/ 21 1004.1R
MICHIGAN CITY              60     180/ 20/ 23   N/A
$$

ILZ025>027-034>036-040-047-049-050-058-095>099-230700-
WEST-CENTRAL ILLINOIS

CITY           SKY/WX    TMP DP  RH WIND       PRES   REMARKS
QUINCY         CLEAR     54  51  90 CALM      29.71R
GALESBURG*     PTCLDY    50  47  92 W7        29.70R
MACOMB*        CLEAR     49  49  97 SW6       29.72S
JACKSONVILLE*  CLOUDY    56  53  90 S9        29.70S
PITTSFIELD*    CLOUDY    57  54  90 SW6       29.71S
$$

ILZ028>032-037-038-041>044-048-051>054-059>061-230700-
CENTRAL ILLINOIS

CITY           SKY/WX    TMP DP  RH WIND       PRES   REMARKS
PONTIAC        CLEAR     53  52  98 W8        29.70R FOG
BLOOMINGTON    CLEAR     55  53  93 SW10      29.71R
DECATUR        CLEAR     57  53  86 SW13      29.71S
PEORIA         FOG       48  48 100 S6        29.71R VSB 1/4
6HR MIN TEMP:  48; 6HR MAX TEMP:  60;

LACON*         PTCLDY    55  53  92 SW6       29.68S
LINCOLN*       CLEAR     54  54 100 SW5       29.70R FOG
SPRINGFIELD    CLOUDY    53  52  96 S9        29.71S
6HR MIN TEMP:  50; 6HR MAX TEMP:  61;

TAYLORVILLE    CLOUDY    56  54  91 S12       29.72S
6HR MIN TEMP:  56; 6HR MAX TEMP:  63;

$$

ILZ033-039-045-046-055>057-062-063-230700-
EAST-CENTRAL ILLINOIS

CITY           SKY/WX    TMP DP  RH WIND       PRES   REMARKS
CHAMPAIGN      CLEAR     55  51  86 S13       29.70F
RANTOUL*       CLEAR     59  55  86 SW12      29.70S
MATTOON        CLEAR     57  54  89 SW7       29.73R
PARIS*         CLEAR     57  54  90 S10       29.74S
$$

ILZ079-100>102-230700-
SOUTHWEST ILLINOIS

CITY           SKY/WX    TMP DP  RH WIND       PRES   REMARKS
ALTON          PTCLDY    57  52  82 SW7       29.74R
BELLEVILLE     PTCLDY    55  55  99 CALM      29.73S
CAHOKIA*       PTCLDY    61  53  75 VRB7      29.73S
SPARTA*        MOCLDY    58  54  87 S5        29.76S
$$

ILZ064>066-069>071-074>076-080>082-084>086-088>090-092>094-230700-
SOUTH-CENTRAL ILLINOIS

CITY           SKY/WX    TMP DP  RH WIND       PRES   REMARKS
CARBONDALE     PTCLDY    57  56  96 S7        29.77S
6HR MIN TEMP:  57; 6HR MAX TEMP:  67;

CAIRO*         CLOUDY    60  58  94 S6        29.79F
EFFINGHAM*     CLEAR     57  55  91 S3        29.76R
MARION         CLOUDY    61  61 100 S6        29.78S
MT. VERNON     CLOUDY    57  55  93 S8        29.75S
CENTRALIA*     PTCLDY    60  57  89 SW8       29.74S
SALEM*         PTCLDY    61  56  81 SW10      29.75R
METROPOLIS*    MOCLDY    59  55  88 CALM      29.80S
$$

ILZ067-068-072-073-078-083-087-091-230700-
SOUTHEAST ILLINOIS

CITY           SKY/WX    TMP DP  RH WIND       PRES   REMARKS
LAWRENCEVILLE  PTCLDY    51  50  96 S8        29.75S
FLORA*         PTCLDY    58  55  89 S7        29.75S
FAIRFIELD*     CLOUDY    57  55  91 S5        29.75S
HARRISBURG*    MOCLDY    57  55  92 CALM      29.79R
ROBINSON*      CLEAR     52  51  95 S5        29.76S
CARMI*         CLOUDY    55  54  95 SW6       29.77S
$$

ABBREVIATIONS USED IN REMARKS
   TC - TEMPERATURE IN CELSIUS
  WCI - WIND CHILL INDEX
   HX - HEAT INDEX
  VSB - VISIBILITY
$$




USA.gov is the U.S. government's official web portal to all federal, state and local government web resources and services.